Погода в Ла-Рондже

Канада     55°06′44″N   105°17′43″W
темп.,
°C
ветер,
м/с
пор.,
м/с
влажн.,
%
обл.,
%
осадки,
мм/ч
давл.,
гПа
погр.,
м
7 марта, вс
вс700:000зсз4794100 0.0 1004207
03:000зсз3796100 0.1 1005210
06:00−4з349465 0.1 100890
09:00−3з48880 0.0 1009215
12:00+2з37870 0.0 1010432
15:00+4з37870 0.0 1010499
18:00+2юз239028 0.0 101143
21:00−1юз3489100 0.0 101267
8 марта, пн
пн800:00−3зюз338994 0.0 101359
03:00−3зюз239199 0.0 101365
06:00−3сз2494100 0.0 1015101
09:00−6ссз479081 0.0 1018248
12:00−6с477867 0.0 1020457
15:00−5с46690 0.0 1021492
18:00−7ссв25740 0.0 1022244
21:00−11св33850 0.0 102377
9 марта, вт
вт900:00−12всв36853 0.0 1024140
03:00−13всв3589100 0.0 1023147
06:00−13всв4788100 0.0 1022247
09:00−12всв3585100 0.0 1021236
12:00−9в3476100 0.0 1019352
15:00−5вюв2460100 0.0 1016557
18:00−5юв3469100 0.0 1014139
21:00−7ю498396 0.0 1013326
10 марта, ср
ср1000:00−7ю4109097 0.1 1012317
03:00−8ю4109194 0.0 1010259
06:00−7ююз5119097 0.0 1009420
09:00−6зсз5893100 0.6 1010497
12:00−10сз6982100 0.7 1013533
15:00−10сз6979100 0.0 1016780
18:00−12ссз5982100 0.1 1019795
21:00−16ссз4983100 0.0 1023494
11 марта, чт
чт1100:00−19ссз378650 0.0 1025301
03:00−20ссз23930 0.0 1026102
06:00−20зсз11960 0.0 102677
09:00−18з14850 0.0 1025213
12:00−11зюз257142 0.0 1024689
15:00−8зюз3661100 0.0 10221121
18:00−8юз256886 0.0 1020201
21:00−11ююз4107861 0.0 1021251